{"data":{"norad_id":68864,"intl_designator":"2026-095A","name":"KUIPER-00299","alt_names":[],"object_type":"PAYLOAD","status":"ACTIVE","operator":null,"country":"US","launch_date":"2026-04-28","launch_site_code":"AFETR","launch_vehicle":null,"mission":null,"orbit_class":"UNKNOWN","rcs_meters":null,"size_class":null,"mass_kg":null,"dimensions":null,"purposes":[],"wikipedia_slug":null,"has_3d_model":false,"image_url":null,"decayed_at":null,"tle_current":{"epoch":"2026-09-18T12:36:33.523200Z","epoch_age_seconds":186125,"freshness":"STALE","line1":"1 68864U 26095A   26261.52538800  .00007164  00000+0  96823-3 0  9990","line2":"2 68864  51.9000 197.8905 0001203 102.1023 258.0074 14.79912269 21439","mean_motion":14.79912269,"eccentricity":0.0001203,"inclination_deg":51.9,"raan_deg":197.8905,"arg_perigee_deg":102.1023,"mean_anomaly_deg":258.0074,"bstar":0.00096823,"rev_number":2143,"period_min":97.303065199468,"perigee_km":628.75804167866,"apogee_km":630.44410345892,"semimajor_km":7007.7380725688,"source":"CELESTRAK","updated_at":"2026-09-20T09:00:24.506801Z"}}}